DELTA 1 DEB, 5971

Orbit data source: Space-Track

DELTA 1 DEB, 5971 is space debris in SSO originally from a launch on Thu, 26 Jan 1967 UTC launched from the Air Force Western Test Range (AFWTR). Debris objects in space refer to the collection of defunct objects orbiting the Earth. Examples of debris include non-operational satellites, rocket bodies, and fragments generated from explosions, collisions, or faulty payload assembly.

Loading next visibility...
Identifier
5971, 1967-006E
Orbit
SSO
Country
Flag of USUS
Related business
Manufacturer
Unknown
Mission
Spacecraft
Bus & Motor
Unknown
Mass
Unknown
Launch date (UTC)
1967-01-26 (59 years ago)
Launch vehicle
Unknown
Launch site
Air Force Western Test Range (AFWTR)
Object type
Payload
Rocket body
Debris
Shape & HBR
Unknown shape, 0.1 m
Radar Cross Section
Small (<0.1 m²)

Expand to show TLE details & history
Last TLE update: 2 days ago

TLE from 2 days ago
0 DELTA 1 DEB
1 05971U 67006E   25345.31161128  .00000002  00000-0  23885-3 0  9994
2 05971 101.9324 276.3366 0113097 343.4322 167.6733 12.73477608737172
Epoch: 2025-12-11T07:28Z
TLE epoch observation values (Epoch: 2025-12-11T07:28:43.214Z)
Latitude
27.98932°
Longitude
-89.69598°
Altitude
1,456.615 km
Speed
7.097 km/s
True Right ascension
06h 51m 00s
True Declination
27° 51' 35"
Sunlit
Object was in full shadow at epoch
Visualization orbit readout
Latitude
Unknown
Longitude
Unknown
Altitude
Unknown
Speed
Unknown
Apparent Right ascension
Unknown
Apparent Declination
Unknown
Sunlit
N/A
Visualization observer readout
Local Sidereal Time
03:19:11
Azimuth
Unknown
Elevation
Unknown
Doppler factor
Unknown
Orbital elements
Apogee altitude
1,452.909 km
Perigee altitude
1,277.756 km
Semi-major axis
7,743.47 km
Eccentricity
0.01131
Inclination
101.9324°
RAAN
276.3366°
Arg. of periapsis
343.4322°
True anomaly
167.9462°
Mean anomaly
167.6733°
Eccentric anomaly
167.81013°
Mean motion
3.18522 °/min
Orbital period
113.02 mins
BSTAR
0.00023885
Loading maneuver chart data...
Computing Atmospheric mass density...
Loading historical data...
Loading historical data...
Loading historical data...
Loading historical data...
Loading historical data...
Loading historical data...
Loading historical data...
Other satellites on launch #6 in the year 1967 (1967-01-26 UTC)

Documentation

Showing up to 5 results
|